TimeMDT,TemperatureF,Dew PointF,Humidity,Sea Level PressureIn,VisibilityMPH,Wind Direction,Wind SpeedMPH,Gust SpeedMPH,PrecipitationIn,Events,Conditions,WindDirDegrees,DateUTC
12:53 AM,50.0,39.9,68,29.98,10.0,Calm,Calm,-,N/A,,Clear,0,2013-09-20 06:53:00
1:53 AM,52.0,37.0,57,29.97,10.0,ESE,12.7,-,N/A,,Clear,120,2013-09-20 07:53:00
2:53 AM,54.0,34.0,47,29.97,10.0,East,12.7,-,N/A,,Clear,100,2013-09-20 08:53:00
3:53 AM,51.1,36.0,56,29.98,10.0,ESE,4.6,-,N/A,,Clear,120,2013-09-20 09:53:00
4:53 AM,48.9,36.0,61,29.99,10.0,SE,5.8,-,N/A,,Clear,140,2013-09-20 10:53:00
5:53 AM,48.0,36.0,63,30.01,10.0,SE,12.7,-,N/A,,Clear,140,2013-09-20 11:53:00
6:53 AM,46.9,36.0,66,30.03,10.0,ESE,9.2,-,N/A,,Clear,110,2013-09-20 12:53:00
7:53 AM,50.0,37.0,61,30.05,10.0,SE,9.2,-,N/A,,Clear,140,2013-09-20 13:53:00
8:53 AM,57.9,36.0,44,30.06,10.0,SE,8.1,-,N/A,,Clear,140,2013-09-20 14:53:00
9:53 AM,63.0,33.1,33,30.04,10.0,ESE,11.5,-,N/A,,Clear,120,2013-09-20 15:53:00
10:53 AM,66.0,33.1,29,30.02,10.0,SSE,10.4,-,N/A,,Clear,150,2013-09-20 16:53:00
11:53 AM,66.9,33.1,28,30.01,10.0,SSE,5.8,-,N/A,,Clear,160,2013-09-20 17:53:00
12:53 PM,71.1,34.0,26,29.99,10.0,Calm,Calm,-,N/A,,Clear,0,2013-09-20 18:53:00
1:53 PM,73.9,30.0,20,29.95,10.0,Calm,Calm,-,N/A,,Clear,0,2013-09-20 19:53:00
2:53 PM,77.0,28.0,17,29.91,10.0,Calm,Calm,-,N/A,,Clear,0,2013-09-20 20:53:00
3:53 PM,78.1,30.9,18,29.89,10.0,Calm,Calm,-,N/A,,Clear,0,2013-09-20 21:53:00
4:53 PM,79.0,28.9,16,29.88,10.0,Calm,Calm,-,N/A,,Clear,0,2013-09-20 22:53:00
5:53 PM,77.0,30.9,19,29.87,10.0,Calm,Calm,-,N/A,,Clear,0,2013-09-20 23:53:00
6:53 PM,75.0,33.1,22,29.87,10.0,Calm,Calm,-,N/A,,Clear,0,2013-09-21 00:53:00
7:53 PM,68.0,37.9,33,29.88,10.0,North,5.8,-,N/A,,Clear,360,2013-09-21 01:53:00
8:53 PM,61.0,44.1,54,29.88,10.0,Calm,Calm,-,N/A,,Clear,0,2013-09-21 02:53:00
9:53 PM,61.0,41.0,48,29.88,10.0,East,3.5,-,N/A,,Clear,80,2013-09-21 03:53:00
10:53 PM,61.0,39.0,44,29.88,10.0,East,9.2,-,N/A,,Clear,100,2013-09-21 04:53:00
11:53 PM,59.0,39.0,48,29.88,10.0,East,9.2,-,N/A,,Clear,90,2013-09-21 05:53:00